Date String (YYYY-MM-DD hh:mm:ss) UTC,Instrument flags,Ambient pressure (hPa),Sample flow (lpm),Bypass flow (lpm),Sample temperature (°C),Ambient temperature (°C),ASC tube jacket temperature (°C),LED temperature (°C),Box temperature (°C),Sample RH (%),Span deviation,Mass concentration (μg/m³),Mass concentration (μg/m³),Mass concentration (μg/m³)
DateTimeUTC,F1_M11,P_M11,Q1_M11,Q2_M11,T1_M11,T2_M11,T3_M11,T4_M11,T5_M11,U1_M11,ZSPAN_M11,X0_M11,X2_M11,X1_M11
2022-04-28 00:00:00,,0819.9,5.00,0.00,28.4,27.9,00.0,37.4,30.2,15.0,-001.7,0024.18,0008.62,0004.75
2022-04-28 00:01:00,,0819.9,5.01,0.00,28.4,28.0,00.0,37.4,30.2,15.1,-001.8,0024.00,0008.52,0004.72
2022-04-28 00:02:00,,0819.9,5.00,0.00,28.5,28.0,00.0,37.4,30.2,15.0,-001.0,0024.01,0008.40,0004.69
2022-04-28 00:03:00,,0819.9,5.00,0.00,28.5,28.0,00.0,37.4,30.2,14.8,-000.5,0024.84,0008.34,0004.67
2022-04-28 00:04:00,,0819.9,4.99,0.00,28.5,28.0,00.0,37.4,30.3,14.9,-000.8,0024.75,0008.42,0004.63
2022-04-28 00:05:00,,0819.9,5.00,0.00,28.5,28.0,00.0,37.4,30.3,14.8,-001.5,0024.43,0008.53,0004.62
2022-04-28 00:06:00,,0819.9,4.99,0.00,28.5,28.1,00.0,37.4,30.3,14.7,-001.7,0023.50,0008.55,0004.61
2022-04-28 00:07:00,,0819.9,4.99,0.00,28.5,28.1,00.0,37.4,30.3,14.8,-001.8,0022.54,0008.50,0004.58
2022-04-28 00:08:00,,0819.9,5.00,0.00,28.5,28.0,00.0,37.4,30.3,15.0,-001.9,0021.93,0008.46,0004.58
2022-04-28 00:09:00,,0819.9,5.01,0.00,28.5,28.0,00.0,37.4,30.3,14.9,-001.4,0022.26,0008.44,0004.57
2022-04-28 00:10:00,,0819.9,4.99,0.00,28.5,28.1,00.0,37.5,30.3,15.1,-000.7,0022.52,0008.34,0004.54
2022-04-28 00:11:00,,0819.9,5.00,0.00,28.6,28.1,00.0,37.5,30.3,15.2,-000.5,0022.70,0008.37,0004.52
2022-04-28 00:12:00,,0819.9,5.01,0.00,28.6,28.1,00.0,37.5,30.3,15.1,0000.1,0022.27,0008.43,0004.50
2022-04-28 00:13:00,,0819.9,4.99,0.00,28.6,28.1,00.0,37.5,30.3,15.0,0000.6,0021.57,0008.45,0004.49
2022-04-28 00:14:00,,0820.0,4.98,0.00,28.6,28.1,00.0,37.5,30.4,15.0,0000.0,0020.36,0008.39,0004.49
2022-04-28 00:15:00,,0820.0,5.00,0.00,28.6,28.1,00.0,37.5,30.4,14.9,0001.5,0019.96,0008.36,0004.51
2022-04-28 00:16:00,,0820.0,5.00,0.00,28.6,28.1,00.0,37.5,30.4,14.7,0002.2,0020.34,0008.30,0004.50
2022-04-28 00:17:00,,0820.0,4.98,0.00,28.6,28.1,00.0,37.5,30.3,14.8,0002.6,0020.47,0008.31,0004.49
2022-04-28 00:18:00,,0820.0,5.00,0.00,28.6,28.1,00.0,37.5,30.3,14.8,0002.4,0020.73,0008.34,0004.48
2022-04-28 00:19:00,,0820.0,5.02,0.00,28.6,28.2,00.0,37.5,30.3,14.8,0001.8,0021.36,0008.32,0004.46
2022-04-28 00:20:00,,0820.0,5.00,0.00,28.6,28.2,00.0,37.5,30.4,14.9,0001.9,0020.77,0008.28,0004.44
2022-04-28 00:21:00,,0820.0,5.00,0.00,28.6,28.2,00.0,37.6,30.4,14.9,0000.7,0019.88,0008.25,0004.44
2022-04-28 00:22:00,,0820.0,4.99,0.00,28.7,28.2,00.0,37.6,30.4,14.9,0001.7,0019.53,0008.20,0004.43
2022-04-28 00:23:00,,0820.0,5.01,0.00,28.7,28.3,00.0,37.6,30.5,14.8,0002.4,0019.50,0008.18,0004.45
2022-04-28 00:24:00,,0820.1,4.98,0.00,28.7,28.3,00.0,37.6,30.5,14.8,0001.4,0019.42,0008.16,0004.44
2022-04-28 00:25:00,,0820.1,5.01,0.00,28.7,28.3,00.0,37.6,30.5,14.9,0000.4,0019.69,0008.19,0004.42
2022-04-28 00:26:00,,0820.1,5.02,0.00,28.7,28.3,00.0,37.6,30.5,15.0,0000.5,0020.01,0008.14,0004.41
2022-04-28 00:27:00,,0820.1,5.00,0.00,28.7,28.3,00.0,37.6,30.5,14.9,0001.6,0020.48,0008.14,0004.41
2022-04-28 00:28:00,,0820.1,4.99,0.00,28.8,28.3,00.0,37.7,30.6,14.9,0001.4,0020.88,0008.15,0004.40
2022-04-28 00:29:00,,0820.2,5.01,0.00,28.8,28.4,00.0,37.7,30.6,14.9,0002.0,0021.09,0008.25,0004.42
2022-04-28 00:30:00,,0820.3,4.99,0.00,28.8,28.4,00.0,37.7,30.6,14.9,0002.3,0021.10,0008.26,0004.43
2022-04-28 00:31:00,,0820.3,5.00,0.00,28.8,28.4,00.0,37.7,30.6,14.9,0003.3,0021.96,0008.28,0004.43
2022-04-28 00:32:00,,0820.3,5.01,0.00,28.8,28.4,00.0,37.7,30.6,15.0,0004.4,0022.90,0008.32,0004.44
2022-04-28 00:33:00,,0820.3,5.00,0.00,28.8,28.4,00.0,37.7,30.7,14.9,0004.0,0024.27,0008.38,0004.45
2022-04-28 00:34:00,,0820.3,5.00,0.00,28.9,28.5,00.0,37.7,30.7,14.8,0003.1,0024.99,0008.38,0004.43
2022-04-28 00:35:00,,0820.4,5.01,0.00,28.9,28.5,00.0,37.8,30.7,14.7,0003.5,0025.73,0008.36,0004.43
2022-04-28 00:36:00,,0820.4,4.99,0.00,28.9,28.5,00.0,37.8,30.7,14.7,0003.2,0026.35,0008.36,0004.43
2022-04-28 00:37:00,,0820.3,4.99,0.00,28.9,28.5,00.0,37.8,30.7,14.8,0002.6,0027.12,0008.37,0004.43
2022-04-28 00:38:00,,0820.4,5.01,0.00,28.9,28.5,00.0,37.8,30.7,14.8,0001.3,0026.12,0008.33,0004.41
2022-04-28 00:39:00,,0820.3,5.01,0.00,28.9,28.5,00.0,37.8,30.7,14.9,0000.8,0025.46,0008.32,0004.42
2022-04-28 00:40:00,,0820.4,4.99,0.00,29.0,28.5,00.0,37.8,30.8,14.9,0001.0,0024.93,0008.16,0004.41
2022-04-28 00:41:00,,0820.4,5.00,0.00,29.0,27.9,00.0,37.8,30.6,14.9,0000.0,0024.42,0008.08,0004.39
2022-04-28 00:42:00,,0820.5,5.00,0.00,28.9,26.1,00.0,37.8,30.3,14.9,0000.0,0023.89,0008.02,0004.38
2022-04-28 00:43:00,,0820.5,4.99,0.00,28.8,25.9,00.0,37.8,30.3,15.0,0000.0,0023.23,0007.88,0004.36
2022-04-28 00:44:00,,0820.6,5.01,0.00,28.8,26.2,00.0,37.8,30.4,15.0,0000.0,0021.77,0007.74,0004.34
2022-04-28 00:45:00,,0820.6,5.00,0.00,28.8,26.6,00.0,37.8,30.5,15.0,0000.0,0020.89,0007.67,0004.34
2022-04-28 00:46:00,,0820.5,4.99,0.00,28.8,27.0,00.0,37.7,30.5,15.0,0000.0,0020.12,0007.64,0004.35
2022-04-28 00:47:00,,0820.6,5.02,0.00,28.8,27.3,00.0,37.7,30.6,15.0,0000.0,0019.94,0007.66,0004.34
2022-04-28 00:48:00,,0820.6,4.99,0.00,28.8,27.5,00.0,37.7,30.6,15.1,0000.0,0019.40,0007.75,0004.35
2022-04-28 00:49:00,,0820.6,4.99,0.00,28.8,27.7,00.0,37.7,30.6,15.0,0000.0,0019.19,0007.73,0004.35
2022-04-28 00:50:00,,0820.6,5.01,0.00,28.9,27.9,00.0,37.7,30.7,14.9,0000.0,0018.89,0007.62,0004.33
2022-04-28 00:51:00,,0820.6,4.99,0.00,28.9,28.0,00.0,37.7,30.7,14.8,0000.0,0018.99,0007.57,0004.31
2022-04-28 00:52:00,,0820.6,5.00,0.00,28.9,28.1,00.0,37.7,30.7,14.9,0000.0,0018.99,0007.51,0004.30
2022-04-28 00:53:00,,0820.6,5.00,0.00,28.9,28.2,00.0,37.8,30.8,14.8,0000.0,0018.58,0007.46,0004.30
2022-04-28 00:54:00,,0820.6,4.99,0.00,28.9,28.3,00.0,37.8,30.8,14.7,0000.0,0019.36,0007.50,0004.30
2022-04-28 00:55:00,,0820.6,5.00,0.00,29.0,28.4,00.0,37.8,30.8,14.9,0000.0,0019.74,0007.49,0004.28
2022-04-28 00:56:00,,0820.6,5.01,0.00,29.0,28.4,00.0,37.8,30.9,14.7,-000.2,0019.35,0007.43,0004.23
2022-04-28 00:57:00,,0820.6,5.01,0.00,29.0,28.5,00.0,37.8,30.9,14.5,0000.0,0019.90,0007.41,0004.21
2022-04-28 00:58:00,,0820.6,4.99,0.00,29.1,28.6,00.0,37.8,30.9,14.5,-000.7,0019.81,0007.40,0004.18
2022-04-28 00:59:00,,0820.6,5.00,0.00,29.1,28.6,00.0,37.9,31.0,14.5,-001.1,0019.03,0007.22,0004.14
